Location: Roanoke
(37.2710°N, 79.9420°W)
Time: 20:25:14
(UTC-05:00)

Transit 2A - Pass Details

Date: 30 November 2019
Orbit: 602 x 957 km, 66.7° (Epoch: 07 December)

Event Time Altitude Azimuth Distance (km) Brightness Sun altitude
Rises 09:00:40 0° 195° (SSW) 3,230 9.7 16.4°
Reaches altitude 10° 09:03:11 10° 191° (SSW) 2,248 9.0 16.7°
Maximum altitude 09:08:09 56° 114° (ESE) 825 7.1 17.4°
Drops below altitude 10° 09:12:42 10° 37° (NE) 2,061 8.2 18.0°
Sets 09:14:56 0° 33° (NNE) 2,937 8.9 18.3°
